This is the latest recevied weather packets stored in our database for station/object KF0PEC-15. If no packets are shown the sender has not sent any weather packets the latest 10 day(s).
| Time | Temp. | Humidity | Pressure | Rain* | Wind** | Luminosity | Snow |
|---|---|---|---|---|---|---|---|
| 1777779290 | 10.56° C | 38% | 1020 hPa | 0 mm | - | 0 W/m² | - |
| 1777778757 | 10.56° C | 38% | 1019.9 hPa | 0 mm | - | 0 W/m² | - |
| 1777778265 | 10.56° C | 36% | 1019.6 hPa | 0 mm | - | 0 W/m² | - |
| 1777777725 | 11.11° C | 36% | 1019.3 hPa | 0 mm | - | 0 W/m² | - |
| 1777777205 | 11.11° C | 34% | 1019 hPa | 0 mm | - | 0 W/m² | - |
| 1777776705 | 11.67° C | 34% | 1018.7 hPa | 0 mm | - | 0 W/m² | - |
| 1777776110 | 12.22° C | 33% | 1018.2 hPa | 0 mm | - | 0 W/m² | - |
| 1777775605 | 12.78° C | 32% | 1017.7 hPa | 0 mm | - | 0 W/m² | - |
| 1777775025 | 13.33° C | 30% | 1017.1 hPa | 0 mm | - | 0 W/m² | - |
| 1777774475 | 13.89° C | 29% | 1016.8 hPa | 0 mm | - | 15 W/m² | - |
| 1777773910 | 14.44° C | 28% | 1016.1 hPa | 0 mm | - | 108 W/m² | - |
| 1777773365 | 15° C | 27% | 1015.8 hPa | 0 mm | - | 210 W/m² | - |
| 1777772810 | 15.56° C | 25% | 1015.2 hPa | 0 mm | - | 515 W/m² | - |
| 1777772295 | 15.56° C | 25% | 1014.9 hPa | 0 mm | - | 924 W/m² | - |
| 1777771740 | 16.11° C | 24% | 1014.7 hPa | 0 mm | - | 130 W/m² | - |
| 1777771240 | 16.11° C | 24% | 1014.5 hPa | 0 mm | - | 148 W/m² | - |
| 1777770655 | 16.11° C | 24% | 1014.2 hPa | 0 mm | - | 180 W/m² | - |
| 1777770090 | 16.67° C | 24% | 1014 hPa | 0 mm | - | 208 W/m² | - |
| 1777769515 | 16.67° C | 24% | 1013.8 hPa | 0 mm | - | 229 W/m² | - |
| 1777768945 | 17.22° C | 23% | 1013.7 hPa | 0 mm | - | 317 W/m² | - |
| 1777768365 | 17.22° C | 24% | 1013.6 hPa | 0 mm | - | 654 W/m² | - |
| 1777767770 | 17.22° C | 24% | 1013.7 hPa | 0 mm | - | 325 W/m² | - |
| 1777767190 | 17.22° C | 24% | 1013.5 hPa | 0 mm | - | 295 W/m² | - |
| 1777766675 | 17.78° C | 24% | 1013.4 hPa | 0 mm | - | 591 W/m² | - |
| 1777766185 | 17.78° C | 25% | 1013.5 hPa | 0 mm | - | 362 W/m² | - |
* Rain latest hour (hover to see other rain measurements)
** Current wind speed in m/s (hover to see current wind gust speed)